Year,Month,Day,Hour,Minute,Value (Times are PST for temperature in C)
2010,07,10,00,00,19.30
2010,07,10,00,01,19.30
2010,07,10,00,02,19.30
2010,07,10,00,03,19.30
2010,07,10,00,04,19.30
2010,07,10,00,05,19.30
2010,07,10,00,06,19.20
2010,07,10,00,07,19.20
2010,07,10,00,08,19.20
2010,07,10,00,09,19.20
2010,07,10,00,10,19.20
2010,07,10,00,11,19.20
2010,07,10,00,12,19.20
2010,07,10,00,13,19.20
2010,07,10,00,14,19.20
2010,07,10,00,15,19.20
2010,07,10,00,16,19.10
2010,07,10,00,17,19.10
2010,07,10,00,18,19.10
2010,07,10,00,19,19.00
2010,07,10,00,20,19.00
2010,07,10,00,21,19.00
2010,07,10,00,22,18.90
2010,07,10,00,23,18.90
2010,07,10,00,24,18.90
2010,07,10,00,25,18.80
2010,07,10,00,26,18.80
2010,07,10,00,27,18.70
2010,07,10,00,28,18.70
2010,07,10,00,29,18.60
2010,07,10,00,30,18.60
2010,07,10,00,31,18.60
2010,07,10,00,32,18.50
2010,07,10,00,33,18.50
2010,07,10,00,34,18.40
2010,07,10,00,35,18.40
2010,07,10,00,36,18.40
2010,07,10,00,37,18.40
2010,07,10,00,38,18.40
2010,07,10,00,39,18.30
2010,07,10,00,40,18.30
2010,07,10,00,41,18.30
2010,07,10,00,42,18.30
2010,07,10,00,43,18.30
2010,07,10,00,44,18.30
2010,07,10,00,45,18.30
2010,07,10,00,46,18.30
2010,07,10,00,47,18.30
2010,07,10,00,48,18.30
2010,07,10,00,49,18.30
2010,07,10,00,50,18.30
2010,07,10,00,51,18.30
2010,07,10,00,52,18.30
2010,07,10,00,53,18.30
2010,07,10,00,54,18.30
2010,07,10,00,55,18.30
2010,07,10,00,56,18.30
2010,07,10,00,57,18.30
2010,07,10,00,58,18.30
2010,07,10,00,59,18.30
2010,07,10,01,00,18.30
2010,07,10,01,01,18.20
2010,07,10,01,02,18.20
2010,07,10,01,03,18.20
2010,07,10,01,04,18.20
2010,07,10,01,05,18.20
2010,07,10,01,06,18.20
2010,07,10,01,07,18.10
2010,07,10,01,08,18.10
2010,07,10,01,09,18.10
2010,07,10,01,10,18.10
2010,07,10,01,11,18.10
2010,07,10,01,12,18.10
2010,07,10,01,13,18.00
2010,07,10,01,14,18.00
2010,07,10,01,15,18.00
2010,07,10,01,16,18.00
2010,07,10,01,17,17.90
2010,07,10,01,18,17.90
2010,07,10,01,19,17.90
2010,07,10,01,20,17.90
2010,07,10,01,21,17.80
2010,07,10,01,22,17.80
2010,07,10,01,23,17.80
2010,07,10,01,24,17.80
2010,07,10,01,25,17.80
2010,07,10,01,26,17.70
2010,07,10,01,27,17.70
2010,07,10,01,28,17.70
2010,07,10,01,29,17.70
2010,07,10,01,30,17.70
2010,07,10,01,31,17.60
2010,07,10,01,32,17.60
2010,07,10,01,33,17.60
2010,07,10,01,34,17.60
2010,07,10,01,35,17.60
2010,07,10,01,36,17.50
2010,07,10,01,37,17.50
2010,07,10,01,38,17.50
2010,07,10,01,39,17.50
2010,07,10,01,40,17.50
2010,07,10,01,41,17.40
2010,07,10,01,42,17.40
2010,07,10,01,43,17.40
2010,07,10,01,44,17.40
2010,07,10,01,45,17.40
2010,07,10,01,46,17.40
2010,07,10,01,47,17.40
2010,07,10,01,48,17.30
2010,07,10,01,49,17.30
2010,07,10,01,50,17.30
2010,07,10,01,51,17.30
2010,07,10,01,52,17.30
2010,07,10,01,53,17.30
2010,07,10,01,54,17.30
2010,07,10,01,55,17.30
2010,07,10,01,56,17.20
2010,07,10,01,57,17.20
2010,07,10,01,58,17.20
2010,07,10,01,59,17.20
2010,07,10,02,00,17.20
2010,07,10,02,01,17.20
2010,07,10,02,02,17.20
2010,07,10,02,03,17.20
2010,07,10,02,04,17.20
2010,07,10,02,05,17.20
2010,07,10,02,06,17.20
2010,07,10,02,07,17.20
2010,07,10,02,08,17.20
2010,07,10,02,09,17.20
2010,07,10,02,10,17.20
2010,07,10,02,11,17.20
2010,07,10,02,12,17.20
2010,07,10,02,13,17.20
2010,07,10,02,14,17.20
2010,07,10,02,15,17.20
2010,07,10,02,16,17.10
2010,07,10,02,17,17.10
2010,07,10,02,18,17.10
2010,07,10,02,19,17.10
2010,07,10,02,20,17.10
2010,07,10,02,21,17.00
2010,07,10,02,22,17.00
2010,07,10,02,23,17.00
2010,07,10,02,24,16.90
2010,07,10,02,25,16.90
2010,07,10,02,26,16.90
2010,07,10,02,27,16.80
2010,07,10,02,28,16.80
2010,07,10,02,29,16.80
2010,07,10,02,30,16.80
2010,07,10,02,31,16.70
2010,07,10,02,32,16.70
2010,07,10,02,33,16.70
2010,07,10,02,34,16.70
2010,07,10,02,35,16.70
2010,07,10,02,36,16.60
2010,07,10,02,37,16.60
2010,07,10,02,38,16.60
2010,07,10,02,39,16.60
2010,07,10,02,40,16.60
2010,07,10,02,41,16.60
2010,07,10,02,42,16.50
2010,07,10,02,43,16.50
2010,07,10,02,44,16.50
2010,07,10,02,45,16.50
2010,07,10,02,46,16.50
2010,07,10,02,47,16.50
2010,07,10,02,48,16.40
2010,07,10,02,49,16.40
2010,07,10,02,50,16.40
2010,07,10,02,51,16.40
2010,07,10,02,52,16.40
2010,07,10,02,53,16.40
2010,07,10,02,54,16.40
2010,07,10,02,55,16.40
2010,07,10,02,56,16.30
2010,07,10,02,57,16.30
2010,07,10,02,58,16.30
2010,07,10,02,59,16.30
2010,07,10,03,00,16.30
2010,07,10,03,01,16.30
2010,07,10,03,02,16.30
2010,07,10,03,03,16.30
2010,07,10,03,04,16.30
2010,07,10,03,05,16.30
2010,07,10,03,06,16.30
2010,07,10,03,07,16.30
2010,07,10,03,08,16.30
2010,07,10,03,09,16.30
2010,07,10,03,10,16.20
2010,07,10,03,11,16.20
2010,07,10,03,12,16.20
2010,07,10,03,13,16.20
2010,07,10,03,14,16.20
2010,07,10,03,15,16.20
2010,07,10,03,16,16.20
2010,07,10,03,17,16.20
2010,07,10,03,18,16.20
2010,07,10,03,19,16.20
2010,07,10,03,20,16.20
2010,07,10,03,21,16.20
2010,07,10,03,22,16.20
2010,07,10,03,23,16.20
2010,07,10,03,24,16.20
2010,07,10,03,25,16.20
2010,07,10,03,26,16.20
2010,07,10,03,27,16.20
2010,07,10,03,28,16.20
2010,07,10,03,29,16.20
2010,07,10,03,30,16.20
2010,07,10,03,31,16.20
2010,07,10,03,32,16.20
2010,07,10,03,33,16.20
2010,07,10,03,34,16.20
2010,07,10,03,35,16.20
2010,07,10,03,36,16.20
2010,07,10,03,37,16.20
2010,07,10,03,38,16.20
2010,07,10,03,39,16.20
2010,07,10,03,40,16.20
2010,07,10,03,41,16.20
2010,07,10,03,42,16.20
2010,07,10,03,43,16.20
2010,07,10,03,44,16.20
2010,07,10,03,45,16.20
2010,07,10,03,46,16.20
2010,07,10,03,47,16.20
2010,07,10,03,48,16.20
2010,07,10,03,49,16.20
2010,07,10,03,50,16.20
2010,07,10,03,51,16.20
2010,07,10,03,52,16.20
2010,07,10,03,53,16.20
2010,07,10,03,54,16.20
2010,07,10,03,55,16.20
2010,07,10,03,56,16.20
2010,07,10,03,57,16.20
2010,07,10,03,58,16.20
2010,07,10,03,59,16.20
2010,07,10,04,00,16.20
2010,07,10,04,01,16.10
2010,07,10,04,02,16.10
2010,07,10,04,03,16.10
2010,07,10,04,04,16.10
2010,07,10,04,05,16.10
2010,07,10,04,06,16.10
2010,07,10,04,07,16.10
2010,07,10,04,08,16.10
2010,07,10,04,09,16.10
2010,07,10,04,10,16.10
2010,07,10,04,11,16.00
2010,07,10,04,12,16.00
2010,07,10,04,13,16.00
2010,07,10,04,14,16.00
2010,07,10,04,15,15.90
2010,07,10,04,16,15.90
2010,07,10,04,17,15.90
2010,07,10,04,18,15.90
2010,07,10,04,19,15.90
2010,07,10,04,20,15.90
2010,07,10,04,21,15.90
2010,07,10,04,22,15.90
2010,07,10,04,23,15.90
2010,07,10,04,24,15.90
2010,07,10,04,25,15.90
2010,07,10,04,26,15.90
2010,07,10,04,27,15.90
2010,07,10,04,28,15.90
2010,07,10,04,29,15.90
2010,07,10,04,30,15.90
2010,07,10,04,31,15.90
2010,07,10,04,32,15.90
2010,07,10,04,33,15.90
2010,07,10,04,34,15.80
2010,07,10,04,35,15.80
2010,07,10,04,36,15.80
2010,07,10,04,37,15.80
2010,07,10,04,38,15.80
2010,07,10,04,39,15.80
2010,07,10,04,40,15.70
2010,07,10,04,41,15.70
2010,07,10,04,42,15.70
2010,07,10,04,43,15.70
2010,07,10,04,44,15.70
2010,07,10,04,45,15.70
2010,07,10,04,46,15.70
2010,07,10,04,47,15.70
2010,07,10,04,48,15.70
2010,07,10,04,49,15.70
2010,07,10,04,50,15.70
2010,07,10,04,51,15.70
2010,07,10,04,52,15.70
2010,07,10,04,53,15.70
2010,07,10,04,54,15.70
2010,07,10,04,55,15.60
2010,07,10,04,56,15.60
2010,07,10,04,57,15.60
2010,07,10,04,58,15.60
2010,07,10,04,59,15.60
2010,07,10,05,00,15.60
2010,07,10,05,01,15.60
2010,07,10,05,02,15.60
2010,07,10,05,03,15.60
2010,07,10,05,04,15.60
2010,07,10,05,05,15.60
2010,07,10,05,06,15.60
2010,07,10,05,07,15.60
2010,07,10,05,08,15.60
2010,07,10,05,09,15.60
2010,07,10,05,10,15.60
2010,07,10,05,11,15.60
2010,07,10,05,12,15.60
2010,07,10,05,13,15.50
2010,07,10,05,14,15.50
2010,07,10,05,15,15.50
2010,07,10,05,16,15.50
2010,07,10,05,17,15.50
2010,07,10,05,18,15.50
2010,07,10,05,19,15.50
2010,07,10,05,20,15.40
2010,07,10,05,21,15.40
2010,07,10,05,22,15.40
2010,07,10,05,23,15.40
2010,07,10,05,24,15.40
2010,07,10,05,25,15.40
2010,07,10,05,26,15.40
2010,07,10,05,27,15.40
2010,07,10,05,28,15.40
2010,07,10,05,29,15.40
2010,07,10,05,30,15.40
2010,07,10,05,31,15.40
2010,07,10,05,32,15.30
2010,07,10,05,33,15.30
2010,07,10,05,34,15.30
2010,07,10,05,35,15.30
2010,07,10,05,36,15.30
2010,07,10,05,37,15.30
2010,07,10,05,38,15.30
2010,07,10,05,39,15.30
2010,07,10,05,40,15.30
2010,07,10,05,41,15.20
2010,07,10,05,42,15.20
2010,07,10,05,43,15.20
2010,07,10,05,44,15.20
2010,07,10,05,45,15.20
2010,07,10,05,46,15.20
2010,07,10,05,47,15.10
2010,07,10,05,48,15.10
2010,07,10,05,49,15.10
2010,07,10,05,50,15.10
2010,07,10,05,51,15.00
2010,07,10,05,52,15.00
2010,07,10,05,53,15.00
2010,07,10,05,54,15.00
2010,07,10,05,55,15.00
2010,07,10,05,56,15.00
2010,07,10,05,57,15.00
2010,07,10,05,58,15.00
2010,07,10,05,59,15.00
2010,07,10,06,00,15.00
2010,07,10,06,01,15.00
2010,07,10,06,02,15.00
2010,07,10,06,03,15.00
2010,07,10,06,04,15.00
2010,07,10,06,05,15.00
2010,07,10,06,06,15.00
2010,07,10,06,07,15.00
2010,07,10,06,08,15.00
2010,07,10,06,09,15.00
2010,07,10,06,10,15.00
2010,07,10,06,11,15.00
2010,07,10,06,12,15.00
2010,07,10,06,13,15.00
2010,07,10,06,14,15.00
2010,07,10,06,15,15.00
2010,07,10,06,16,15.00
2010,07,10,06,17,15.00
2010,07,10,06,18,15.00
2010,07,10,06,19,15.00
2010,07,10,06,20,15.00
2010,07,10,06,21,15.00
2010,07,10,06,22,15.00
2010,07,10,06,23,15.00
2010,07,10,06,24,15.00
2010,07,10,06,25,15.00
2010,07,10,06,26,15.00
2010,07,10,06,27,15.00
2010,07,10,06,28,15.00
2010,07,10,06,29,15.00
2010,07,10,06,30,15.00
2010,07,10,06,31,15.00
2010,07,10,06,32,15.00
2010,07,10,06,33,15.00
2010,07,10,06,34,15.00
2010,07,10,06,35,15.00
2010,07,10,06,36,15.00
2010,07,10,06,37,15.00
2010,07,10,06,38,15.00
2010,07,10,06,39,15.00
2010,07,10,06,40,15.00
2010,07,10,06,41,15.10
2010,07,10,06,42,15.10
2010,07,10,06,43,15.10
2010,07,10,06,44,15.20
2010,07,10,06,45,15.20
2010,07,10,06,46,15.30
2010,07,10,06,47,15.30
2010,07,10,06,48,15.30
2010,07,10,06,49,15.30
2010,07,10,06,50,15.30
2010,07,10,06,51,15.30
2010,07,10,06,52,15.30
2010,07,10,06,53,15.30
2010,07,10,06,54,15.40
2010,07,10,06,55,15.40
2010,07,10,06,56,15.40
2010,07,10,06,57,15.40
2010,07,10,06,58,15.50
2010,07,10,06,59,15.50
2010,07,10,07,00,15.50
2010,07,10,07,01,15.60
2010,07,10,07,02,15.60
2010,07,10,07,03,15.70
2010,07,10,07,04,15.70
2010,07,10,07,05,15.80
2010,07,10,07,06,15.80
2010,07,10,07,07,15.80
2010,07,10,07,08,15.90
2010,07,10,07,09,16.00
2010,07,10,07,10,16.00
2010,07,10,07,11,16.10
2010,07,10,07,12,16.10
2010,07,10,07,13,16.20
2010,07,10,07,14,16.20
2010,07,10,07,15,16.30
2010,07,10,07,16,16.30
2010,07,10,07,17,16.30
2010,07,10,07,18,16.40
2010,07,10,07,19,16.40
2010,07,10,07,20,16.50
2010,07,10,07,21,16.50
2010,07,10,07,22,16.60
2010,07,10,07,23,16.60
2010,07,10,07,24,16.70
2010,07,10,07,25,16.80
2010,07,10,07,26,16.90
2010,07,10,07,27,16.90
2010,07,10,07,28,17.00
2010,07,10,07,29,17.10
2010,07,10,07,30,17.20
2010,07,10,07,31,17.20
2010,07,10,07,32,17.30
2010,07,10,07,33,17.40
2010,07,10,07,34,17.50
2010,07,10,07,35,17.60
2010,07,10,07,36,17.60
2010,07,10,07,37,17.70
2010,07,10,07,38,17.70
2010,07,10,07,39,17.80
2010,07,10,07,40,17.80
2010,07,10,07,41,17.80
2010,07,10,07,42,17.90
2010,07,10,07,43,17.90
2010,07,10,07,44,17.90
2010,07,10,07,45,18.00
2010,07,10,07,46,18.00
2010,07,10,07,47,18.10
2010,07,10,07,48,18.20
2010,07,10,07,49,18.30
2010,07,10,07,50,18.30
2010,07,10,07,51,18.30
2010,07,10,07,52,18.30
2010,07,10,07,53,18.30
2010,07,10,07,54,18.30
2010,07,10,07,55,18.30
2010,07,10,07,56,18.30
2010,07,10,07,57,18.30
2010,07,10,07,58,18.30
2010,07,10,07,59,18.40
2010,07,10,08,00,18.40
2010,07,10,08,01,18.40
2010,07,10,08,02,18.50
2010,07,10,08,03,18.60
2010,07,10,08,04,18.60
2010,07,10,08,05,18.60
2010,07,10,08,06,18.60
2010,07,10,08,07,18.60
2010,07,10,08,08,18.70
2010,07,10,08,09,18.70
2010,07,10,08,10,18.80
2010,07,10,08,11,18.90
2010,07,10,08,12,18.90
2010,07,10,08,13,18.90
2010,07,10,08,14,19.00
2010,07,10,08,15,19.10
2010,07,10,08,16,19.10
2010,07,10,08,17,19.10
2010,07,10,08,18,19.20
2010,07,10,08,19,19.30
2010,07,10,08,20,19.40
2010,07,10,08,21,19.40
2010,07,10,08,22,19.50
2010,07,10,08,23,19.40
2010,07,10,08,24,19.40
2010,07,10,08,25,19.20
2010,07,10,08,26,19.10
2010,07,10,08,27,18.90
2010,07,10,08,28,18.80
2010,07,10,08,29,18.70
2010,07,10,08,30,18.60
2010,07,10,08,31,18.60
2010,07,10,08,32,18.50
2010,07,10,08,33,18.40
2010,07,10,08,34,18.40
2010,07,10,08,35,18.30
2010,07,10,08,36,18.30
2010,07,10,08,37,18.30
2010,07,10,08,38,18.20
2010,07,10,08,39,18.30
2010,07,10,08,40,18.30
2010,07,10,08,41,18.30
2010,07,10,08,42,18.30
2010,07,10,08,43,18.30
2010,07,10,08,44,18.30
2010,07,10,08,45,18.40
2010,07,10,08,46,18.50
2010,07,10,08,47,18.40
2010,07,10,08,48,18.40
2010,07,10,08,49,18.30
2010,07,10,08,50,18.30
2010,07,10,08,51,18.30
2010,07,10,08,52,18.20
2010,07,10,08,53,18.20
2010,07,10,08,54,18.30
2010,07,10,08,55,18.30
2010,07,10,08,56,18.30
2010,07,10,08,57,18.30
2010,07,10,08,58,18.30
2010,07,10,08,59,18.30
2010,07,10,09,00,18.30
2010,07,10,09,01,18.40
2010,07,10,09,02,18.50
2010,07,10,09,03,18.60
2010,07,10,09,04,18.60
2010,07,10,09,05,18.50
2010,07,10,09,06,18.40
2010,07,10,09,07,18.20
2010,07,10,09,08,18.20
2010,07,10,09,09,18.20
2010,07,10,09,10,18.10
2010,07,10,09,11,18.10
2010,07,10,09,12,18.20
2010,07,10,09,13,18.20
2010,07,10,09,14,18.30
2010,07,10,09,15,18.30
2010,07,10,09,16,18.40
2010,07,10,09,17,18.50
2010,07,10,09,18,18.50
2010,07,10,09,19,18.50
2010,07,10,09,20,18.40
2010,07,10,09,21,18.50
2010,07,10,09,22,18.60
2010,07,10,09,23,18.70
2010,07,10,09,24,18.60
2010,07,10,09,25,18.50
2010,07,10,09,26,18.50
2010,07,10,09,27,18.40
2010,07,10,09,28,18.40
2010,07,10,09,29,18.40
2010,07,10,09,30,18.50
2010,07,10,09,31,18.40
2010,07,10,09,32,18.40
2010,07,10,09,33,18.40
2010,07,10,09,34,18.40
2010,07,10,09,35,18.50
2010,07,10,09,36,18.50
2010,07,10,09,37,18.60
2010,07,10,09,38,18.70
2010,07,10,09,39,18.70
2010,07,10,09,40,18.70
2010,07,10,09,41,18.80
2010,07,10,09,42,18.80
2010,07,10,09,43,18.90
2010,07,10,09,44,19.00
2010,07,10,09,45,19.00
2010,07,10,09,46,19.10
2010,07,10,09,47,19.20
2010,07,10,09,48,19.30
2010,07,10,09,49,19.30
2010,07,10,09,50,19.40
2010,07,10,09,51,19.40
2010,07,10,09,52,19.50
2010,07,10,09,53,19.50
2010,07,10,09,54,19.60
2010,07,10,09,55,19.70
2010,07,10,09,56,19.70
2010,07,10,09,57,19.80
2010,07,10,09,58,19.80
2010,07,10,09,59,19.80
2010,07,10,10,00,19.90
2010,07,10,10,01,19.90
2010,07,10,10,02,19.90
2010,07,10,10,03,19.90
2010,07,10,10,04,19.90
2010,07,10,10,05,19.80
2010,07,10,10,06,19.80
2010,07,10,10,07,19.90
2010,07,10,10,08,19.90
2010,07,10,10,09,19.90
2010,07,10,10,10,19.80
2010,07,10,10,11,19.80
2010,07,10,10,12,19.80
2010,07,10,10,13,19.80
2010,07,10,10,14,19.80
2010,07,10,10,15,19.80
2010,07,10,10,16,19.90
2010,07,10,10,17,19.90
2010,07,10,10,18,19.80
2010,07,10,10,19,19.90
2010,07,10,10,20,19.90
2010,07,10,10,21,19.90
2010,07,10,10,22,20.00
2010,07,10,10,23,20.00
2010,07,10,10,24,20.10
2010,07,10,10,25,20.10
2010,07,10,10,26,20.20
2010,07,10,10,27,20.20
2010,07,10,10,28,20.20
2010,07,10,10,29,20.30
2010,07,10,10,30,20.40
2010,07,10,10,31,20.50
2010,07,10,10,32,20.60
2010,07,10,10,33,20.70
2010,07,10,10,34,20.70
2010,07,10,10,35,20.60
2010,07,10,10,36,20.60
2010,07,10,10,37,20.60
2010,07,10,10,38,20.60
2010,07,10,10,39,20.60
2010,07,10,10,40,20.60
2010,07,10,10,41,20.50
2010,07,10,10,42,20.60
2010,07,10,10,43,20.60
2010,07,10,10,44,20.70
2010,07,10,10,45,20.70
2010,07,10,10,46,20.70
2010,07,10,10,47,20.70
2010,07,10,10,48,20.70
2010,07,10,10,49,20.70
2010,07,10,10,50,20.70
2010,07,10,10,51,20.70
2010,07,10,10,52,20.70
2010,07,10,10,53,20.70
2010,07,10,10,54,20.70
2010,07,10,10,55,20.70
2010,07,10,10,56,20.80
2010,07,10,10,57,20.80
2010,07,10,10,58,20.80
2010,07,10,10,59,20.80
2010,07,10,11,00,20.80
2010,07,10,11,01,20.80
2010,07,10,11,02,20.80
2010,07,10,11,03,20.70
2010,07,10,11,04,20.80
2010,07,10,11,05,20.80
2010,07,10,11,06,20.90
2010,07,10,11,07,20.90
2010,07,10,11,08,20.90
2010,07,10,11,09,20.90
2010,07,10,11,10,20.90
2010,07,10,11,11,21.10
2010,07,10,11,12,21.20
2010,07,10,11,13,21.20
2010,07,10,11,14,21.30
2010,07,10,11,15,21.30
2010,07,10,11,16,21.30
2010,07,10,11,17,21.20
2010,07,10,11,18,21.30
2010,07,10,11,19,21.20
2010,07,10,11,20,21.10
2010,07,10,11,21,21.10
2010,07,10,11,22,21.00
2010,07,10,11,23,21.00
2010,07,10,11,24,21.00
2010,07,10,11,25,20.90
2010,07,10,11,26,20.80
2010,07,10,11,27,20.80
2010,07,10,11,28,20.80
2010,07,10,11,29,20.90
2010,07,10,11,30,20.90
2010,07,10,11,31,20.80
2010,07,10,11,32,20.70
2010,07,10,11,33,20.70
2010,07,10,11,34,20.70
2010,07,10,11,35,20.80
2010,07,10,11,36,20.80
2010,07,10,11,37,20.80
2010,07,10,11,38,20.90
2010,07,10,11,39,20.90
2010,07,10,11,40,20.90
2010,07,10,11,41,20.80
2010,07,10,11,42,20.80
2010,07,10,11,43,20.70
2010,07,10,11,44,20.70
2010,07,10,11,45,20.70
2010,07,10,11,46,20.70
2010,07,10,11,47,20.70
2010,07,10,11,48,20.70
2010,07,10,11,49,20.70
2010,07,10,11,50,20.70
2010,07,10,11,51,20.70
2010,07,10,11,52,20.70
2010,07,10,11,53,20.70
2010,07,10,11,54,20.70
2010,07,10,11,55,20.70
2010,07,10,11,56,20.60
2010,07,10,11,57,20.50
2010,07,10,11,58,20.50
2010,07,10,11,59,20.40
2010,07,10,12,00,20.40
2010,07,10,12,01,20.30
2010,07,10,12,02,20.20
2010,07,10,12,03,20.10
2010,07,10,12,04,19.90
2010,07,10,12,05,19.70
2010,07,10,12,06,19.60
2010,07,10,12,07,19.50
2010,07,10,12,08,19.40
2010,07,10,12,09,19.30
2010,07,10,12,10,19.20
2010,07,10,12,11,19.10
2010,07,10,12,12,19.00
2010,07,10,12,13,18.80
2010,07,10,12,14,18.70
2010,07,10,12,15,18.50
2010,07,10,12,16,18.50
2010,07,10,12,17,18.60
2010,07,10,12,18,18.70
2010,07,10,12,19,18.70
2010,07,10,12,20,18.60
2010,07,10,12,21,18.50
2010,07,10,12,22,18.40
2010,07,10,12,23,18.20
2010,07,10,12,24,18.10
2010,07,10,12,25,18.10
2010,07,10,12,26,18.10
2010,07,10,12,27,18.10
2010,07,10,12,28,18.10
2010,07,10,12,29,18.10
2010,07,10,12,30,18.10
2010,07,10,12,31,18.10
2010,07,10,12,32,18.00
2010,07,10,12,33,18.10
2010,07,10,12,34,18.10
2010,07,10,12,35,18.00
2010,07,10,12,36,18.00
2010,07,10,12,37,18.00
2010,07,10,12,38,18.10
2010,07,10,12,39,18.10
2010,07,10,12,40,18.10
2010,07,10,12,41,18.20
2010,07,10,12,42,18.40
2010,07,10,12,43,18.60
2010,07,10,12,44,18.70
2010,07,10,12,45,18.90
2010,07,10,12,46,19.00
2010,07,10,12,47,19.10
2010,07,10,12,48,19.10
2010,07,10,12,49,19.10
2010,07,10,12,50,19.10
2010,07,10,12,51,19.20
2010,07,10,12,52,19.20
2010,07,10,12,53,19.30
2010,07,10,12,54,19.30
2010,07,10,12,55,19.30
2010,07,10,12,56,19.20
2010,07,10,12,57,19.00
2010,07,10,12,58,18.90
2010,07,10,12,59,18.70
2010,07,10,13,00,18.70
2010,07,10,13,01,18.60
2010,07,10,13,02,18.50
2010,07,10,13,03,18.40
2010,07,10,13,04,18.30
2010,07,10,13,05,18.20
2010,07,10,13,06,18.10
2010,07,10,13,07,18.00
2010,07,10,13,08,17.90
2010,07,10,13,09,18.00
2010,07,10,13,10,18.00
2010,07,10,13,11,18.10
2010,07,10,13,12,18.10
2010,07,10,13,13,18.20
2010,07,10,13,14,18.20
2010,07,10,13,15,18.20
2010,07,10,13,16,18.20
2010,07,10,13,17,18.30
2010,07,10,13,18,18.30
2010,07,10,13,19,18.40
2010,07,10,13,20,18.50
2010,07,10,13,21,18.60
2010,07,10,13,22,18.60
2010,07,10,13,23,18.70
2010,07,10,13,24,18.80
2010,07,10,13,25,18.90
2010,07,10,13,26,18.90
2010,07,10,13,27,19.00
2010,07,10,13,28,19.20
2010,07,10,13,29,19.40
2010,07,10,13,30,19.50
2010,07,10,13,31,19.60
2010,07,10,13,32,19.80
2010,07,10,13,33,19.90
2010,07,10,13,34,20.00
2010,07,10,13,35,20.10
2010,07,10,13,36,20.30
2010,07,10,13,37,20.30
2010,07,10,13,38,20.30
2010,07,10,13,39,20.30
2010,07,10,13,40,20.40
2010,07,10,13,41,20.50
2010,07,10,13,42,20.60
2010,07,10,13,43,20.70
2010,07,10,13,44,20.70
2010,07,10,13,45,20.80
2010,07,10,13,46,20.80
2010,07,10,13,47,20.80
2010,07,10,13,48,20.80
2010,07,10,13,49,20.80
2010,07,10,13,50,20.90
2010,07,10,13,51,20.90
2010,07,10,13,52,21.00
2010,07,10,13,53,21.00
2010,07,10,13,54,21.00
2010,07,10,13,55,21.00
2010,07,10,13,56,21.00
2010,07,10,13,57,21.10
2010,07,10,13,58,21.20
2010,07,10,13,59,21.20
2010,07,10,14,00,21.30
2010,07,10,14,01,21.30
2010,07,10,14,02,21.30
2010,07,10,14,03,21.30
2010,07,10,14,04,21.30
2010,07,10,14,05,21.40
2010,07,10,14,06,21.40
2010,07,10,14,07,21.40
2010,07,10,14,08,21.50
2010,07,10,14,09,21.50
2010,07,10,14,10,21.60
2010,07,10,14,11,21.70
2010,07,10,14,12,21.70
2010,07,10,14,13,21.80
2010,07,10,14,14,21.80
2010,07,10,14,15,21.80
2010,07,10,14,16,21.80
2010,07,10,14,17,21.80
2010,07,10,14,18,21.80
2010,07,10,14,19,21.80
2010,07,10,14,20,21.90
2010,07,10,14,21,21.90
2010,07,10,14,22,21.90
2010,07,10,14,23,21.90
2010,07,10,14,24,22.00
2010,07,10,14,25,21.90
2010,07,10,14,26,21.90
2010,07,10,14,27,21.90
2010,07,10,14,28,21.90
2010,07,10,14,29,21.90
2010,07,10,14,30,21.90
2010,07,10,14,31,21.90
2010,07,10,14,32,22.00
2010,07,10,14,33,22.10
2010,07,10,14,34,22.10
2010,07,10,14,35,22.10
2010,07,10,14,36,22.00
2010,07,10,14,37,22.00
2010,07,10,14,38,21.90
2010,07,10,14,39,21.90
2010,07,10,14,40,21.90
2010,07,10,14,41,21.90
2010,07,10,14,42,22.00
2010,07,10,14,43,22.10
2010,07,10,14,44,22.10
2010,07,10,14,45,22.10
2010,07,10,14,46,22.00
2010,07,10,14,47,21.90
2010,07,10,14,48,21.70
2010,07,10,14,49,21.60
2010,07,10,14,50,21.50
2010,07,10,14,51,21.40
2010,07,10,14,52,21.30
2010,07,10,14,53,21.20
2010,07,10,14,54,21.30
2010,07,10,14,55,21.20
2010,07,10,14,56,21.20
2010,07,10,14,57,21.20
2010,07,10,14,58,21.10
2010,07,10,14,59,20.90
2010,07,10,15,00,20.80
2010,07,10,15,01,20.60
2010,07,10,15,02,20.50
2010,07,10,15,03,20.40
2010,07,10,15,04,20.30
2010,07,10,15,05,20.30
2010,07,10,15,06,20.30
2010,07,10,15,07,20.30
2010,07,10,15,08,20.30
2010,07,10,15,09,20.30
2010,07,10,15,10,20.40
2010,07,10,15,11,20.40
2010,07,10,15,12,20.50
2010,07,10,15,13,20.50
2010,07,10,15,14,20.60
2010,07,10,15,15,20.60
2010,07,10,15,16,20.70
2010,07,10,15,17,20.80
2010,07,10,15,18,20.90
2010,07,10,15,19,21.00
2010,07,10,15,20,21.00
2010,07,10,15,21,21.00
2010,07,10,15,22,20.90
2010,07,10,15,23,20.80
2010,07,10,15,24,20.80
2010,07,10,15,25,20.80
2010,07,10,15,26,20.80
2010,07,10,15,27,20.80
2010,07,10,15,28,20.80
2010,07,10,15,29,20.80
2010,07,10,15,30,20.80
2010,07,10,15,31,20.80
2010,07,10,15,32,20.80
2010,07,10,15,33,20.80
2010,07,10,15,34,20.80
2010,07,10,15,35,20.70
2010,07,10,15,36,20.70
2010,07,10,15,37,20.70
2010,07,10,15,38,20.70
2010,07,10,15,39,20.60
2010,07,10,15,40,20.60
2010,07,10,15,41,20.60
2010,07,10,15,42,20.60
2010,07,10,15,43,20.70
2010,07,10,15,44,20.70
2010,07,10,15,45,20.80
2010,07,10,15,46,20.80
2010,07,10,15,47,20.80
2010,07,10,15,48,20.80
2010,07,10,15,49,20.80
2010,07,10,15,50,20.80
2010,07,10,15,51,20.80
2010,07,10,15,52,20.80
2010,07,10,15,53,20.80
2010,07,10,15,54,20.90
2010,07,10,15,55,20.90
2010,07,10,15,56,20.90
2010,07,10,15,57,20.90
2010,07,10,15,58,20.90
2010,07,10,15,59,20.90
2010,07,10,16,00,20.90
2010,07,10,16,01,21.00
2010,07,10,16,02,21.00
2010,07,10,16,03,21.10
2010,07,10,16,04,21.10
2010,07,10,16,05,21.10
2010,07,10,16,06,21.10
2010,07,10,16,07,21.10
2010,07,10,16,08,21.10
2010,07,10,16,09,21.10
2010,07,10,16,10,21.10
2010,07,10,16,11,21.10
2010,07,10,16,12,21.20
2010,07,10,16,13,21.20
2010,07,10,16,14,21.20
2010,07,10,16,15,21.30
2010,07,10,16,16,21.30
2010,07,10,16,17,21.30
2010,07,10,16,18,21.40
2010,07,10,16,19,21.40
2010,07,10,16,20,21.50
2010,07,10,16,21,21.60
2010,07,10,16,22,21.70
2010,07,10,16,23,21.70
2010,07,10,16,24,21.70
2010,07,10,16,25,21.70
2010,07,10,16,26,21.80
2010,07,10,16,27,21.80
2010,07,10,16,28,21.80
2010,07,10,16,29,21.90
2010,07,10,16,30,21.90
2010,07,10,16,31,21.90
2010,07,10,16,32,21.80
2010,07,10,16,33,21.90
2010,07,10,16,34,21.90
2010,07,10,16,35,21.90
2010,07,10,16,36,21.90
2010,07,10,16,37,21.80
2010,07,10,16,38,21.80
2010,07,10,16,39,21.80
2010,07,10,16,40,21.80
2010,07,10,16,41,21.80
2010,07,10,16,42,21.80
2010,07,10,16,43,21.80
2010,07,10,16,44,21.80
2010,07,10,16,45,21.90
2010,07,10,16,46,21.90
2010,07,10,16,47,21.90
2010,07,10,16,48,22.00
2010,07,10,16,49,22.10
2010,07,10,16,50,22.10
2010,07,10,16,51,22.00
2010,07,10,16,52,22.00
2010,07,10,16,53,22.10
2010,07,10,16,54,22.20
2010,07,10,16,55,22.30
2010,07,10,16,56,22.30
2010,07,10,16,57,22.30
2010,07,10,16,58,22.30
2010,07,10,16,59,22.30
2010,07,10,17,00,22.30
2010,07,10,17,01,22.40
2010,07,10,17,02,22.40
2010,07,10,17,03,22.40
2010,07,10,17,04,22.40
2010,07,10,17,05,22.50
2010,07,10,17,06,22.50
2010,07,10,17,07,22.50
2010,07,10,17,08,22.50
2010,07,10,17,09,22.60
2010,07,10,17,10,22.60
2010,07,10,17,11,22.60
2010,07,10,17,12,22.70
2010,07,10,17,13,22.80
2010,07,10,17,14,22.90
2010,07,10,17,15,23.00
2010,07,10,17,16,23.00
2010,07,10,17,17,23.00
2010,07,10,17,18,23.00
2010,07,10,17,19,23.00